sat.trackr.live / text

‹ back to catalog

ION SCV-018

NORAD 64575 · 2025-135AZ

PAYLOAD ACTIVE UNKNOWN

§ Identity

Operator
Country
IT
Launch date
2025-06-23
Launch site
AFWTR
Launch vehicle
Mass (kg)
RCS (m²)

External: N2YO · Heavens-Above · Gunter

§ Orbital elements

Epoch: 2026-05-25T01:22:39.499104Z

Period
96.35 min
Inclination
97.7750°
Eccentricity
0.0012824
Mean motion
14.94600440 rev/d
Perigee alt
574.7 km
Apogee alt
592.5 km
Semi-major
6,961.8 km
B*
9.2719e-5
RAAN
260.3476°
Arg perigee
16.4532°
Mean anomaly
343.7102°
Rev number
5,047

§ Raw data

ION SCV-0181 64575U 25135AZ  26145.05740161  .00000947  00000+0  92719-4 0  99962 64575  97.7750 260.3476 0012824  16.4532 343.7102 14.94600440 50478

JSON: /api/v1/satellites/64575 · /tle

For live sub-satellite position, see the globe view (requires WebGL).

§ Visibility from observer

Set your observer location to see the next 7 days of passes ≥ 10°. The values pass through the URL so the page stays shareable.

No JS? Fill the form by hand. The geolocation button needs JavaScript.

§ Radio — SatNOGS DB

ModeDescriptionDownlinkUplink
FSK AX.100 Mode 5 Mode U - FSK1k2 AX.100 401.415 MHz

1 transmitter · refreshed weekly from db.satnogs.org